QPF
0.02 0.03 0.02 0.03 0.04 0.04 0.04 0.04 0.02 0.02 0.02 0.01 0.01 0.00 0.00 0.00 0.00 0.00 0.00 0.00 0.00 0.00 0.00 0.00 0.00 0.00 0.00 0.00 0.00 0.00 0.00 0.00 0.01 0.01 0.01 0.01 0.01 0.01 0.01 0.02 0.04 0.06 0.05
0.01 0.01 0.01 0.02 0.04 0.04 0.04 0.05 0.05 0.04 0.03 0.02 0.01 0.01 0.00 0.00 0.00 0.00 0.00 0.00 0.00 0.00 0.00 0.00 0.00 0.00 0.00 0.00 0.00 0.00 0.01 0.00 0.00 0.01 0.01 0.01 0.01 0.02 0.03 0.03 0.05 0.05 0.04
0.00 0.01 0.01 0.01 0.02 0.02 0.04 0.03 0.03 0.03 0.02 0.02 0.01 0.01 0.01 0.00 0.00 0.00 0.00 0.00 0.00 0.00 0.00 0.00 0.00 0.00 0.00 0.00 0.00 0.00 0.00 0.00 0.00 0.01 0.01 0.01 0.01 0.02 0.04 0.03 0.03 0.03 0.02
0.01 0.00 0.01 0.01 0.01 0.02 0.03 0.03 0.03 0.02 0.03 0.03 0.02 0.01 0.01 0.01 0.00 0.00 0.00 0.00 0.00 0.00 0.00 0.00 0.00 0.00 0.00 0.00 0.00 0.00 0.00 0.00 0.00 0.01 0.01 0.01 0.01 0.02 0.04 0.04 0.03 0.03 0.02
0.02 0.01 0.01 0.01 0.01 0.01 0.03 0.03 0.03 0.03 0.03 0.03 0.02 0.02 0.02 0.02 0.01 0.01 0.01 0.01 0.00 0.00 0.00 0.00 0.00 0.00 0.00 0.01 0.00 0.00 0.00 0.00 0.00 0.01 0.02 0.01 0.01 0.01 0.01 0.02 0.02 0.02 0.02
0.02 0.01 0.01 0.01 0.01 0.02 0.03 0.04 0.04 0.04 0.03 0.02 0.02 0.02 0.02 0.02 0.02 0.02 0.02 0.02 0.01 0.01 0.00 0.00 0.00 0.00 0.00 0.01 0.01 0.01 0.00 0.00 0.01 0.01 0.01 0.01 0.02 0.02 0.01 0.01 0.01 0.02 0.01
0.02 0.01 0.01 0.01 0.01 0.02 0.02 0.02 0.02 0.03 0.03 0.02 0.01 0.01 0.01 0.02 0.02 0.02 0.03 0.02 0.02 0.02 0.01 0.01 0.00 0.00 0.00 0.00 0.01 0.01 0.01 0.01 0.01 0.01 0.02 0.02 0.02 0.03 0.02 0.01 0.01 0.01 0.00
0.01 0.01 0.01 0.00 0.00 0.01 0.02 0.02 0.01 0.01 0.02 0.02 0.01 0.01 0.02 0.02 0.03 0.03 0.03 0.02 0.03 0.04 0.03 0.01 0.01 0.00 0.00 0.00 0.01 0.01 0.01 0.01 0.02 0.02 0.02 0.02 0.03 0.03 0.03 0.02 0.01 0.01 0.00
0.01 0.02 0.02 0.00 0.00 0.01 0.01 0.03 0.01 0.01 0.02 0.02 0.02 0.02 0.01 0.01 0.01 0.02 0.02 0.02 0.03 0.03 0.02 0.02 0.02 0.01 0.01 0.00 0.00 0.00 0.01 0.01 0.01 0.02 0.01 0.01 0.02 0.03 0.03 0.03 0.03 0.02 0.01
0.01 0.01 0.03 0.02 0.01 0.01 0.01 0.02 0.02 0.01 0.01 0.01 0.02 0.02 0.01 0.01 0.01 0.01 0.02 0.02 0.02 0.02 0.02 0.02 0.02 0.02 0.02 0.02 0.01 0.01 0.01 0.01 0.01 0.01 0.01 0.00 0.01 0.02 0.04 0.04 0.03 0.03 0.02
0.01 0.01 0.01 0.02 0.04 0.03 0.02 0.01 0.01 0.01 0.01 0.01 0.01 0.01 0.01 0.01 0.00 0.01 0.01 0.02 0.02 0.02 0.02 0.02 0.02 0.02 0.02 0.02 0.02 0.01 0.01 0.01 0.00 0.01 0.01 0.01 0.01 0.01 0.03 0.04 0.03 0.02 0.01
0.00 0.01 0.01 0.02 0.02 0.03 0.02 0.02 0.01 0.01 0.01 0.01 0.01 0.01 0.01 0.01 0.01 0.00 0.00 0.01 0.02 0.02 0.02 0.02 0.02 0.02 0.02 0.02 0.01 0.01 0.01 0.01 0.01 0.01 0.01 0.01 0.01 0.01 0.01 0.02 0.02 0.01 0.01
0.00 0.00 0.00 0.01 0.02 0.02 0.02 0.02 0.02 0.01 0.01 0.01 0.02 0.01 0.01 0.01 0.01 0.01 0.01 0.01 0.01 0.01 0.01 0.02 0.02 0.02 0.02 0.02 0.02 0.02 0.02 0.02 0.01 0.01 0.01 0.01 0.01 0.01 0.01 0.01 0.01 0.01 0.01
0.01 0.01 0.01 0.01 0.01 0.02 0.02 0.02 0.02 0.02 0.02 0.02 0.01 0.01 0.01 0.01 0.01 0.01 0.02 0.02 0.01 0.01 0.00 0.00 0.01 0.02 0.03 0.03 0.03 0.02 0.02 0.03 0.02 0.01 0.01 0.01 0.01 0.01 0.01 0.01 0.01 0.01 0.00
0.01 0.01 0.02 0.01 0.01 0.01 0.01 0.01 0.01 0.02 0.02 0.02 0.02 0.01 0.01 0.00 0.01 0.01 0.02 0.02 0.01 0.01 0.00 0.00 0.00 0.01 0.02 0.02 0.02 0.02 0.02 0.02 0.02 0.02 0.01 0.01 0.01 0.01 0.01 0.01 0.01 0.01 0.00
0.01 0.01 0.02 0.01 0.01 0.01 0.01 0.01 0.02 0.01 0.02 0.01 0.01 0.01 0.01 0.01 0.01 0.01 0.02 0.02 0.02 0.01 0.01 0.00 0.00 0.00 0.01 0.01 0.02 0.02 0.03 0.02 0.02 0.02 0.01 0.01 0.01 0.01 0.01 0.01 0.01 0.01 0.01
0.01 0.02 0.02 0.01 0.01 0.01 0.01 0.01 0.01 0.01 0.01 0.02 0.02 0.03 0.03 0.03 0.02 0.02 0.02 0.02 0.02 0.02 0.01 0.01 0.01 0.01 0.01 0.01 0.01 0.02 0.03 0.03 0.02 0.02 0.01 0.01 0.01 0.01 0.01 0.01 0.01 0.01 0.01
0.01 0.01 0.01 0.02 0.02 0.01 0.01 0.02 0.02 0.02 0.02 0.02 0.02 0.03 0.03 0.02 0.02 0.02 0.02 0.02 0.01 0.02 0.02 0.02 0.01 0.01 0.01 0.01 0.01 0.01 0.02 0.02 0.02 0.02 0.01 0.01 0.01 0.01 0.01 0.01 0.01 0.00 0.01
0.00 0.01 0.01 0.02 0.01 0.01 0.01 0.02 0.03 0.04 0.03 0.02 0.01 0.01 0.01 0.01 0.02 0.03 0.02 0.02 0.01 0.01 0.01 0.02 0.01 0.01 0.01 0.02 0.01 0.01 0.01 0.02 0.02 0.02 0.02 0.01 0.01 0.01 0.00 0.00 0.00 0.00 0.00
0.00 0.00 0.01 0.01 0.01 0.01 0.01 0.03 0.03 0.02 0.01 0.01 0.00 0.01 0.01 0.01 0.02 0.03 0.02 0.02 0.02 0.01 0.01 0.01 0.01 0.01 0.02 0.02 0.02 0.02 0.02 0.02 0.02 0.02 0.02 0.01 0.01 0.01 0.01 0.00 0.00 0.00 0.00
0.00 0.00 0.01 0.01 0.01 0.01 0.01 0.02 0.02 0.02 0.02 0.01 0.01 0.01 0.01 0.01 0.02 0.02 0.02 0.03 0.03 0.02 0.02 0.02 0.01 0.01 0.02 0.02 0.02 0.02 0.02 0.03 0.03 0.02 0.01 0.01 0.01 0.01 0.01 0.01 0.00 0.00 0.01
0.00 0.00 0.01 0.01 0.01 0.00 0.00 0.01 0.01 0.01 0.02 0.01 0.01 0.01 0.01 0.01 0.01 0.02 0.02 0.02 0.03 0.03 0.04 0.04 0.04 0.02 0.01 0.01 0.02 0.02 0.02 0.02 0.02 0.02 0.01 0.01 0.01 0.01 0.01 0.01 0.01 0.01 0.01
0.00 0.01 0.01 0.01 0.00 0.00 0.00 0.01 0.01 0.01 0.01 0.01 0.01 0.01 0.01 0.02 0.02 0.02 0.02 0.02 0.02 0.03 0.05 0.06 0.05 0.05 0.04 0.03 0.03 0.03 0.02 0.01 0.01 0.02 0.02 0.02 0.02 0.02 0.01 0.01 0.01 0.01 0.01
0.00 0.00 0.00 0.00 0.00 0.01 0.01 0.01 0.01 0.01 0.01 0.02 0.02 0.02 0.03 0.04 0.03 0.02 0.02 0.02 0.02 0.02 0.03 0.05 0.05 0.04 0.04 0.03 0.03 0.02 0.01 0.01 0.01 0.02 0.02 0.02 0.02 0.01 0.01 0.01 0.01 0.01 0.01
0.01 0.01 0.00 0.00 0.00 0.01 0.01 0.01 0.01 0.01 0.02 0.02 0.02 0.02 0.03 0.04 0.05 0.04 0.02 0.02 0.02 0.02 0.02 0.03 0.03 0.03 0.03 0.03 0.04 0.04 0.04 0.03 0.03 0.02 0.02 0.02 0.01 0.01 0.01 0.01 0.01 0.01 0.01
0.01 0.01 0.01 0.00 0.00 0.01 0.01 0.01 0.01 0.01 0.00 0.01 0.01 0.01 0.02 0.02 0.03 0.03 0.03 0.03 0.03 0.03 0.03 0.03 0.04 0.05 0.05 0.05 0.05 0.04 0.04 0.04 0.04 0.03 0.02 0.02 0.01 0.01 0.01 0.01 0.01 0.01 0.01
MSLP
1019.06 1019.11 1019.15 1019.14 1019.09 1019.02 1018.95 1018.91 1018.90 1018.95 1019.03 1019.13 1019.21 1019.25 1019.23 1019.13 1018.98 1018.81 1018.65 1018.55 1018.55 1018.67 1018.92 1019.28 1019.72 1020.19 1020.65 1021.06 1021.39 1021.66 1021.85 1022.01 1022.17 1022.34 1022.53 1022.75 1022.99 1023.20 1023.35 1023.41 1023.36 1023.19 1022.90
1019.39 1019.47 1019.52 1019.50 1019.42 1019.31 1019.20 1019.12 1019.09 1019.14 1019.26 1019.40 1019.55 1019.65 1019.69 1019.64 1019.51 1019.33 1019.16 1019.04 1019.01 1019.11 1019.34 1019.69 1020.11 1020.56 1021.00 1021.38 1021.68 1021.90 1022.07 1022.22 1022.38 1022.59 1022.86 1023.18 1023.54 1023.90 1024.20 1024.40 1024.48 1024.41 1024.20
1019.59 1019.72 1019.79 1019.78 1019.69 1019.55 1019.41 1019.30 1019.27 1019.32 1019.47 1019.66 1019.87 1020.04 1020.14 1020.14 1020.04 1019.88 1019.71 1019.57 1019.52 1019.59 1019.78 1020.09 1020.48 1020.89 1021.28 1021.61 1021.86 1022.05 1022.19 1022.33 1022.51 1022.76 1023.10 1023.52 1024.00 1024.48 1024.92 1025.26 1025.45 1025.49 1025.35
1019.59 1019.78 1019.90 1019.93 1019.86 1019.72 1019.56 1019.44 1019.41 1019.48 1019.65 1019.89 1020.16 1020.40 1020.55 1020.60 1020.55 1020.41 1020.24 1020.10 1020.03 1020.06 1020.22 1020.48 1020.82 1021.17 1021.50 1021.78 1021.99 1022.14 1022.25 1022.39 1022.58 1022.87 1023.27 1023.78 1024.35 1024.94 1025.49 1025.93 1026.23 1026.36 1026.30
1019.40 1019.67 1019.86 1019.95 1019.92 1019.81 1019.67 1019.56 1019.53 1019.61 1019.81 1020.09 1020.40 1020.69 1020.90 1021.01 1020.99 1020.89 1020.74 1020.59 1020.51 1020.52 1020.63 1020.85 1021.12 1021.42 1021.70 1021.93 1022.10 1022.21 1022.32 1022.45 1022.66 1022.98 1023.42 1023.97 1024.60 1025.25 1025.87 1026.40 1026.77 1026.98 1027.01
1019.06 1019.42 1019.71 1019.87 1019.91 1019.85 1019.74 1019.65 1019.63 1019.73 1019.94 1020.24 1020.59 1020.92 1021.18 1021.33 1021.36 1021.29 1021.17 1021.04 1020.95 1020.94 1021.02 1021.20 1021.43 1021.67 1021.91 1022.09 1022.23 1022.33 1022.42 1022.55 1022.77 1023.09 1023.54 1024.11 1024.75 1025.43 1026.08 1026.65 1027.08 1027.35 1027.46
1018.66 1019.11 1019.49 1019.75 1019.87 1019.87 1019.80 1019.74 1019.74 1019.85 1020.06 1020.38 1020.74 1021.09 1021.38 1021.57 1021.64 1021.62 1021.53 1021.42 1021.34 1021.33 1021.40 1021.54 1021.73 1021.95 1022.15 1022.31 1022.42 1022.51 1022.60 1022.72 1022.93 1023.24 1023.68 1024.22 1024.84 1025.50 1026.14 1026.71 1027.17 1027.50 1027.67
1018.30 1018.83 1019.30 1019.65 1019.84 1019.91 1019.89 1019.86 1019.87 1019.98 1020.19 1020.50 1020.86 1021.22 1021.53 1021.75 1021.86 1021.88 1021.83 1021.76 1021.70 1021.70 1021.76 1021.89 1022.07 1022.26 1022.44 1022.58 1022.69 1022.77 1022.86 1022.98 1023.17 1023.45 1023.85 1024.33 1024.90 1025.50 1026.10 1026.65 1027.11 1027.47 1027.71
1018.06 1018.65 1019.18 1019.59 1019.86 1019.98 1020.01 1020.00 1020.03 1020.14 1020.34 1020.63 1020.98 1021.33 1021.65 1021.89 1022.03 1022.09 1022.09 1022.06 1022.03 1022.05 1022.13 1022.25 1022.42 1022.60 1022.78 1022.92 1023.03 1023.11 1023.20 1023.31 1023.48 1023.73 1024.06 1024.48 1024.96 1025.49 1026.02 1026.52 1026.97 1027.35 1027.64
1017.95 1018.57 1019.14 1019.60 1019.91 1020.07 1020.13 1020.16 1020.20 1020.30 1020.49 1020.77 1021.09 1021.44 1021.75 1022.00 1022.17 1022.27 1022.31 1022.33 1022.34 1022.39 1022.48 1022.62 1022.79 1022.97 1023.14 1023.29 1023.41 1023.50 1023.59 1023.70 1023.85 1024.05 1024.33 1024.67 1025.07 1025.50 1025.95 1026.40 1026.82 1027.20 1027.53
1017.96 1018.58 1019.16 1019.63 1019.95 1020.14 1020.23 1020.28 1020.33 1020.44 1020.63 1020.89 1021.20 1021.53 1021.84 1022.10 1022.30 1022.43 1022.51 1022.57 1022.62 1022.70 1022.82 1022.97 1023.14 1023.32 1023.50 1023.65 1023.78 1023.89 1023.99 1024.10 1024.24 1024.42 1024.64 1024.91 1025.23 1025.58 1025.95 1026.33 1026.71 1027.08 1027.43
1018.02 1018.61 1019.15 1019.60 1019.92 1020.12 1020.23 1020.30 1020.38 1020.51 1020.70 1020.96 1021.27 1021.59 1021.90 1022.17 1022.38 1022.55 1022.66 1022.76 1022.86 1022.96 1023.10 1023.26 1023.44 1023.62 1023.80 1023.96 1024.11 1024.23 1024.35 1024.47 1024.61 1024.77 1024.96 1025.18 1025.43 1025.70 1026.00 1026.32 1026.65 1026.99 1027.33
1018.03 1018.56 1019.04 1019.45 1019.74 1019.95 1020.08 1020.18 1020.30 1020.46 1020.68 1020.96 1021.27 1021.60 1021.91 1022.19 1022.42 1022.61 1022.76 1022.89 1023.02 1023.15 1023.30 1023.47 1023.65 1023.83 1024.01 1024.17 1024.33 1024.47 1024.61 1024.75 1024.90 1025.07 1025.24 1025.43 1025.63 1025.85 1026.08 1026.33 1026.60 1026.90 1027.22
1017.92 1018.36 1018.77 1019.11 1019.38 1019.58 1019.74 1019.89 1020.06 1020.27 1020.54 1020.85 1021.18 1021.52 1021.85 1022.14 1022.39 1022.60 1022.78 1022.93 1023.08 1023.24 1023.40 1023.57 1023.75 1023.92 1024.09 1024.26 1024.42 1024.57 1024.73 1024.90 1025.07 1025.25 1025.42 1025.60 1025.77 1025.95 1026.12 1026.32 1026.53 1026.77 1027.05
1017.65 1017.99 1018.30 1018.57 1018.81 1019.01 1019.20 1019.41 1019.65 1019.94 1020.26 1020.62 1020.99 1021.35 1021.69 1021.99 1022.26 1022.49 1022.69 1022.87 1023.04 1023.22 1023.39 1023.56 1023.73 1023.89 1024.05 1024.20 1024.36 1024.52 1024.70 1024.88 1025.07 1025.27 1025.46 1025.63 1025.79 1025.94 1026.07 1026.21 1026.36 1026.54 1026.76
1017.23 1017.45 1017.67 1017.87 1018.08 1018.29 1018.52 1018.79 1019.11 1019.48 1019.87 1020.28 1020.69 1021.07 1021.43 1021.74 1022.02 1022.27 1022.49 1022.70 1022.89 1023.08 1023.26 1023.44 1023.60 1023.75 1023.89 1024.03 1024.17 1024.33 1024.50 1024.69 1024.90 1025.11 1025.31 1025.49 1025.64 1025.77 1025.87 1025.95 1026.05 1026.17 1026.32
1016.70 1016.81 1016.94 1017.08 1017.26 1017.49 1017.77 1018.11 1018.50 1018.94 1019.40 1019.85 1020.29 1020.70 1021.07 1021.39 1021.68 1021.94 1022.18 1022.41 1022.63 1022.84 1023.04 1023.22 1023.37 1023.51 1023.63 1023.74 1023.86 1023.99 1024.16 1024.34 1024.55 1024.76 1024.96 1025.15 1025.30 1025.40 1025.48 1025.53 1025.57 1025.63 1025.72
1016.13 1016.16 1016.21 1016.31 1016.47 1016.71 1017.04 1017.44 1017.89 1018.39 1018.89 1019.38 1019.84 1020.25 1020.62 1020.94 1021.23 1021.51 1021.77 1022.02 1022.27 1022.51 1022.73 1022.91 1023.07 1023.19 1023.28 1023.37 1023.45 1023.55 1023.68 1023.84 1024.03 1024.23 1024.43 1024.61 1024.75 1024.85 1024.91 1024.93 1024.94 1024.95 1024.99
1015.62 1015.57 1015.57 1015.64 1015.80 1016.06 1016.41 1016.85 1017.35 1017.87 1018.40 1018.90 1019.35 1019.75 1020.10 1020.42 1020.71 1020.98 1021.26 1021.54 1021.82 1022.08 1022.32 1022.52 1022.68 1022.79 1022.86 1022.91 1022.96 1023.02 1023.10 1023.23 1023.38 1023.56 1023.74 1023.90 1024.04 1024.13 1024.18 1024.19 1024.17 1024.16 1024.16
1015.21 1015.12 1015.09 1015.14 1015.30 1015.57 1015.94 1016.40 1016.91 1017.43 1017.95 1018.42 1018.85 1019.22 1019.54 1019.83 1020.11 1020.39 1020.68 1020.98 1021.28 1021.57 1021.83 1022.04 1022.20 1022.30 1022.35 1022.37 1022.38 1022.39 1022.43 1022.51 1022.62 1022.76 1022.92 1023.06 1023.19 1023.27 1023.32 1023.32 1023.30 1023.27 1023.26
1014.93 1014.83 1014.79 1014.85 1015.01 1015.28 1015.65 1016.10 1016.59 1017.08 1017.55 1017.98 1018.35 1018.68 1018.96 1019.22 1019.48 1019.75 1020.05 1020.36 1020.67 1020.98 1021.25 1021.47 1021.62 1021.72 1021.75 1021.74 1021.71 1021.68 1021.68 1021.71 1021.78 1021.88 1022.00 1022.13 1022.24 1022.32 1022.36 1022.37 1022.35 1022.32 1022.30
1014.78 1014.69 1014.67 1014.73 1014.90 1015.17 1015.52 1015.93 1016.37 1016.81 1017.21 1017.57 1017.88 1018.15 1018.38 1018.60 1018.84 1019.09 1019.38 1019.69 1020.00 1020.31 1020.58 1020.79 1020.94 1021.02 1021.03 1020.99 1020.94 1020.88 1020.84 1020.83 1020.86 1020.93 1021.03 1021.13 1021.22 1021.29 1021.33 1021.33 1021.32 1021.30 1021.27
1014.70 1014.66 1014.67 1014.76 1014.94 1015.19 1015.51 1015.87 1016.24 1016.60 1016.93 1017.21 1017.45 1017.65 1017.84 1018.02 1018.23 1018.46 1018.73 1019.02 1019.32 1019.60 1019.85 1020.04 1020.16 1020.22 1020.21 1020.15 1020.08 1020.00 1019.93 1019.90 1019.91 1019.95 1020.01 1020.09 1020.16 1020.21 1020.24 1020.24 1020.22 1020.20 1020.17
1014.68 1014.70 1014.76 1014.88 1015.07 1015.30 1015.58 1015.88 1016.18 1016.45 1016.70 1016.90 1017.08 1017.23 1017.37 1017.52 1017.70 1017.91 1018.14 1018.40 1018.66 1018.90 1019.10 1019.25 1019.33 1019.36 1019.33 1019.25 1019.17 1019.08 1019.01 1018.96 1018.95 1018.97 1019.01 1019.06 1019.09 1019.12 1019.12 1019.10 1019.07 1019.03 1018.99
1014.66 1014.76 1014.89 1015.05 1015.24 1015.46 1015.69 1015.93 1016.15 1016.35 1016.53 1016.67 1016.79 1016.91 1017.02 1017.15 1017.31 1017.49 1017.69 1017.90 1018.10 1018.28 1018.41 1018.50 1018.53 1018.52 1018.46 1018.37 1018.28 1018.19 1018.12 1018.08 1018.06 1018.06 1018.07 1018.08 1018.08 1018.06 1018.02 1017.96 1017.89 1017.81 1017.75
1014.63 1014.82 1015.01 1015.22 1015.42 1015.63 1015.83 1016.02 1016.18 1016.32 1016.44 1016.54 1016.64 1016.74 1016.84 1016.97 1017.11 1017.26 1017.43 1017.58 1017.71 1017.82 1017.88 1017.89 1017.86 1017.79 1017.70 1017.60 1017.51 1017.43 1017.37 1017.33 1017.31 1017.30 1017.28 1017.25 1017.19 1017.11 1017.00 1016.87 1016.74 1016.61 1016.50
Thickness
5723 5725 5725 5724 5723 5721 5720 5719 5718 5716 5715 5712 5710 5708 5707 5707 5708 5708 5708 5707 5707 5706 5705 5703 5701 5700 5698 5696 5694 5691 5688 5686 5685 5683 5679 5678 5678 5678 5678 5678 5678 5678 5678
5718 5720 5720 5720 5719 5718 5717 5717 5716 5714 5713 5711 5709 5707 5705 5704 5704 5704 5704 5704 5703 5703 5702 5701 5699 5698 5695 5693 5691 5689 5685 5683 5683 5681 5676 5671 5671 5672 5673 5673 5673 5673 5673
5716 5717 5716 5716 5716 5715 5715 5715 5713 5712 5711 5709 5706 5704 5702 5700 5699 5699 5699 5700 5700 5700 5699 5698 5697 5695 5693 5690 5689 5688 5686 5681 5680 5680 5677 5671 5666 5666 5667 5667 5668 5668 5668
5718 5716 5715 5714 5714 5714 5714 5713 5711 5709 5708 5707 5704 5702 5698 5694 5694 5695 5696 5696 5697 5696 5696 5695 5694 5692 5691 5689 5687 5686 5685 5682 5678 5677 5676 5675 5672 5665 5661 5661 5662 5663 5662
5717 5716 5716 5715 5714 5713 5712 5710 5708 5706 5705 5704 5702 5699 5696 5694 5693 5692 5692 5692 5692 5693 5693 5692 5691 5690 5688 5687 5685 5684 5683 5681 5679 5676 5674 5671 5668 5666 5661 5656 5656 5657 5657
5717 5716 5716 5714 5712 5711 5709 5707 5705 5703 5702 5700 5699 5696 5694 5692 5690 5689 5688 5688 5688 5688 5689 5688 5687 5686 5685 5684 5683 5682 5680 5679 5678 5676 5674 5671 5668 5664 5661 5655 5652 5651 5652
5715 5714 5712 5711 5709 5708 5707 5705 5703 5701 5699 5698 5696 5694 5692 5691 5689 5687 5686 5685 5684 5684 5684 5684 5684 5683 5683 5682 5681 5679 5677 5676 5675 5673 5671 5670 5669 5666 5662 5656 5651 5648 5647
5713 5713 5713 5711 5709 5707 5705 5703 5700 5699 5697 5695 5693 5692 5690 5689 5687 5686 5685 5684 5683 5682 5682 5681 5681 5680 5680 5679 5678 5676 5674 5673 5672 5671 5669 5667 5666 5664 5661 5657 5651 5646 5643
5712 5712 5712 5710 5708 5706 5704 5702 5699 5697 5695 5693 5691 5689 5688 5687 5685 5683 5682 5681 5681 5680 5679 5679 5678 5677 5676 5675 5674 5673 5671 5670 5668 5667 5666 5664 5663 5661 5659 5656 5654 5649 5642
5708 5709 5709 5708 5707 5705 5703 5700 5698 5696 5694 5691 5689 5688 5685 5684 5682 5681 5680 5679 5678 5678 5676 5675 5674 5673 5672 5671 5670 5669 5667 5666 5664 5663 5662 5660 5658 5656 5655 5653 5651 5649 5645
5705 5705 5705 5705 5704 5702 5700 5698 5695 5693 5691 5689 5687 5685 5683 5681 5680 5678 5678 5677 5676 5675 5673 5672 5670 5669 5668 5667 5666 5664 5663 5662 5660 5659 5658 5656 5654 5652 5651 5649 5647 5644 5642
5703 5703 5702 5701 5699 5698 5697 5695 5693 5691 5689 5687 5685 5682 5680 5678 5676 5675 5675 5674 5672 5671 5670 5669 5667 5665 5664 5663 5662 5660 5659 5657 5656 5655 5654 5652 5651 5648 5647 5645 5643 5640 5638
5698 5698 5697 5696 5696 5695 5693 5692 5690 5688 5686 5684 5681 5679 5676 5675 5673 5672 5671 5670 5669 5668 5667 5665 5664 5662 5661 5659 5658 5656 5655 5653 5652 5651 5650 5648 5647 5645 5642 5641 5639 5636 5634
5693 5693 5693 5693 5692 5691 5691 5689 5687 5686 5683 5681 5678 5675 5674 5672 5671 5669 5668 5667 5665 5664 5662 5661 5660 5659 5657 5655 5654 5652 5651 5649 5648 5647 5646 5645 5644 5642 5639 5637 5634 5632 5629
5689 5689 5689 5689 5688 5687 5687 5687 5685 5683 5681 5678 5675 5673 5671 5669 5667 5665 5664 5663 5661 5660 5658 5657 5656 5654 5653 5652 5650 5648 5647 5645 5644 5643 5642 5641 5641 5639 5637 5635 5631 5628 5624
5683 5685 5685 5685 5685 5685 5685 5684 5682 5681 5678 5675 5672 5670 5667 5665 5663 5661 5660 5658 5657 5655 5654 5652 5651 5650 5650 5649 5648 5646 5643 5641 5640 5638 5638 5637 5637 5636 5634 5632 5630 5626 5622
5679 5679 5680 5681 5683 5684 5683 5682 5681 5678 5674 5672 5669 5666 5664 5661 5659 5658 5655 5653 5651 5650 5649 5647 5646 5646 5645 5645 5643 5641 5639 5637 5635 5634 5633 5633 5632 5630 5628 5627 5625 5622 5620
5674 5675 5677 5678 5680 5681 5680 5679 5677 5674 5670 5667 5665 5663 5660 5657 5655 5653 5651 5649 5647 5645 5644 5642 5642 5641 5640 5640 5639 5636 5633 5631 5630 5630 5629 5628 5627 5625 5623 5621 5619 5617 5615
5671 5673 5674 5676 5676 5676 5675 5673 5671 5669 5666 5663 5661 5659 5657 5653 5650 5648 5646 5645 5642 5640 5639 5638 5637 5636 5635 5635 5634 5631 5628 5626 5625 5625 5624 5623 5622 5622 5620 5617 5613 5611 5609
5668 5669 5671 5671 5671 5672 5671 5668 5665 5663 5662 5661 5659 5656 5654 5651 5648 5646 5643 5641 5639 5637 5635 5633 5632 5631 5631 5630 5629 5626 5623 5620 5619 5619 5619 5619 5618 5617 5615 5612 5609 5606 5604
5664 5665 5665 5665 5667 5667 5666 5663 5661 5659 5660 5658 5656 5653 5650 5647 5645 5642 5640 5637 5634 5632 5630 5628 5627 5626 5626 5625 5624 5622 5618 5616 5615 5614 5613 5614 5614 5613 5611 5608 5606 5604 5601
5659 5660 5659 5660 5661 5662 5661 5659 5657 5658 5655 5653 5651 5648 5645 5643 5641 5637 5634 5632 5629 5626 5624 5622 5622 5621 5621 5621 5619 5617 5616 5614 5611 5610 5609 5609 5609 5607 5606 5603 5602 5599 5595
5652 5653 5654 5654 5654 5655 5656 5654 5654 5652 5649 5647 5645 5642 5640 5638 5636 5633 5629 5626 5624 5622 5620 5618 5617 5616 5616 5616 5616 5613 5612 5610 5607 5607 5606 5605 5604 5602 5600 5598 5596 5593 5589
5645 5647 5647 5647 5647 5649 5649 5650 5648 5646 5643 5640 5638 5636 5634 5632 5630 5628 5626 5623 5620 5618 5616 5614 5613 5612 5611 5610 5610 5608 5606 5604 5602 5601 5600 5599 5597 5595 5594 5592 5589 5586 5583
5639 5640 5640 5641 5641 5642 5642 5642 5642 5640 5637 5634 5632 5630 5629 5627 5624 5622 5621 5620 5619 5618 5616 5614 5613 5610 5609 5609 5608 5605 5602 5600 5597 5595 5593 5591 5589 5587 5586 5584 5582 5579 5576
5631 5632 5633 5634 5634 5635 5635 5635 5635 5634 5631 5628 5625 5624 5622 5620 5619 5617 5615 5615 5615 5615 5614 5614 5612 5610 5610 5608 5605 5602 5600 5596 5593 5589 5587 5585 5584 5582 5580 5578 5575 5573 5570